Time,TemperatureF,DewpointF,PressureIn,WindDirection,WindDirectionDegrees,WindSpeedMPH,WindSpeedGustMPH,Humidity,HourlyPrecipIn,Conditions,Clouds,dailyrainin,SoftwareType,DateUTC
2013-04-30 00:13:00,56.9,55.0,29.99,ENE,60,0.0,2.0,94,0.00,,,0.00,weatherlink.com 1.10,2013-04-30 04:13:00,
2013-04-30 00:28:00,56.6,55.0,29.99,NNE,20,0.0,3.0,94,0.00,,,0.00,weatherlink.com 1.10,2013-04-30 04:28:00,
2013-04-30 00:43:00,56.3,55.0,29.98,NNE,20,0.0,1.0,94,0.00,,,0.00,weatherlink.com 1.10,2013-04-30 04:43:00,
2013-04-30 00:58:00,56.1,54.0,29.98,NE,35,0.0,3.0,94,0.00,,,0.00,weatherlink.com 1.10,2013-04-30 04:58:00,
2013-04-30 01:13:00,56.0,55.0,29.98,NE,47,1.0,6.0,95,0.00,,,0.00,weatherlink.com 1.10,2013-04-30 05:13:00,
2013-04-30 01:28:00,56.3,55.0,29.99,ENE,62,1.0,3.0,96,0.00,,,0.00,weatherlink.com 1.10,2013-04-30 05:28:00,
2013-04-30 01:43:00,56.7,56.0,29.99,ENE,74,0.0,3.0,96,0.00,,,0.00,weatherlink.com 1.10,2013-04-30 05:43:00,
2013-04-30 01:58:00,56.9,56.0,29.99,NNE,12,0.0,4.0,96,0.00,,,0.00,weatherlink.com 1.10,2013-04-30 05:58:00,
2013-04-30 02:13:00,57.1,56.0,29.98,East,98,3.0,4.0,96,0.00,,,0.00,weatherlink.com 1.10,2013-04-30 06:13:00,
2013-04-30 02:28:00,57.1,56.0,29.98,NNE,25,1.0,3.0,96,0.00,,,0.00,weatherlink.com 1.10,2013-04-30 06:28:00,
2013-04-30 02:43:00,57.0,56.0,29.98,NNE,13,0.0,3.0,96,0.00,,,0.00,weatherlink.com 1.10,2013-04-30 06:43:00,
2013-04-30 02:58:00,56.9,56.0,29.98,ENE,61,0.0,5.0,96,0.00,,,0.00,weatherlink.com 1.10,2013-04-30 06:58:00,
2013-04-30 03:13:00,56.7,56.0,29.98,North,360,0.0,4.0,96,0.00,,,0.00,weatherlink.com 1.10,2013-04-30 07:13:00,
2013-04-30 03:28:00,56.5,55.0,29.97,NE,35,0.0,2.0,96,0.00,,,0.00,weatherlink.com 1.10,2013-04-30 07:28:00,
2013-04-30 03:43:00,56.4,55.0,29.98,NNE,30,1.0,3.0,96,0.00,,,0.00,weatherlink.com 1.10,2013-04-30 07:43:00,
2013-04-30 03:58:00,56.2,55.0,29.98,NNE,20,0.0,3.0,96,0.00,,,0.00,weatherlink.com 1.10,2013-04-30 07:58:00,
2013-04-30 04:13:00,56.1,55.0,29.99,NE,35,0.0,5.0,96,0.00,,,0.00,weatherlink.com 1.10,2013-04-30 08:13:00,
2013-04-30 04:28:00,55.9,55.0,29.99,NE,49,1.0,5.0,96,0.00,,,0.00,weatherlink.com 1.10,2013-04-30 08:28:00,
2013-04-30 04:43:00,55.8,55.0,29.99,ENE,78,0.0,4.0,97,0.00,,,0.00,weatherlink.com 1.10,2013-04-30 08:43:00,
2013-04-30 04:58:00,56.1,55.0,30.00,NNE,13,2.0,5.0,97,0.00,,,0.00,weatherlink.com 1.10,2013-04-30 08:58:00,
2013-04-30 05:13:00,56.3,56.0,30.00,NE,55,0.0,5.0,97,0.00,,,0.00,weatherlink.com 1.10,2013-04-30 09:13:00,
2013-04-30 05:28:00,56.5,56.0,30.00,NNE,24,0.0,5.0,97,0.00,,,0.00,weatherlink.com 1.10,2013-04-30 09:28:00,
2013-04-30 05:43:00,56.6,56.0,30.00,North,355,0.0,8.0,97,0.00,,,0.00,weatherlink.com 1.10,2013-04-30 09:43:00,
2013-04-30 05:58:00,56.6,56.0,30.01,North,5,1.0,8.0,97,0.00,,,0.00,weatherlink.com 1.10,2013-04-30 09:58:00,
2013-04-30 06:13:00,56.6,56.0,30.02,East,91,3.0,6.0,97,0.00,,,0.00,weatherlink.com 1.10,2013-04-30 10:13:00,
2013-04-30 06:28:00,56.5,56.0,30.03,NE,42,1.0,6.0,97,0.00,,,0.00,weatherlink.com 1.10,2013-04-30 10:28:00,
2013-04-30 06:43:00,56.4,56.0,30.04,NE,46,1.0,10.0,97,0.00,,,0.00,weatherlink.com 1.10,2013-04-30 10:43:00,
2013-04-30 06:58:00,56.3,56.0,30.05,ENE,69,3.0,7.0,97,0.00,,,0.00,weatherlink.com 1.10,2013-04-30 10:58:00,
2013-04-30 07:13:00,56.2,55.0,30.05,ENE,74,0.0,10.0,97,0.00,,,0.00,weatherlink.com 1.10,2013-04-30 11:13:00,
2013-04-30 07:28:00,56.2,55.0,30.06,ENE,63,1.0,3.0,97,0.00,,,0.00,weatherlink.com 1.10,2013-04-30 11:28:00,
2013-04-30 07:43:00,56.2,55.0,30.07,NNE,25,2.0,9.0,97,0.00,,,0.00,weatherlink.com 1.10,2013-04-30 11:43:00,
2013-04-30 07:58:00,56.2,55.0,30.07,North,9,1.0,8.0,97,0.00,,,0.00,weatherlink.com 1.10,2013-04-30 11:58:00,
2013-04-30 08:13:00,56.2,55.0,30.08,NNW,348,1.0,5.0,97,0.00,,,0.00,weatherlink.com 1.10,2013-04-30 12:13:00,
2013-04-30 08:28:00,56.3,56.0,30.08,ENE,75,1.0,7.0,97,0.00,,,0.00,weatherlink.com 1.10,2013-04-30 12:28:00,
2013-04-30 08:43:00,56.5,56.0,30.08,NNE,19,0.0,6.0,97,0.00,,,0.00,weatherlink.com 1.10,2013-04-30 12:43:00,
2013-04-30 08:58:00,56.7,56.0,30.09,NNW,329,2.0,8.0,98,0.00,,,0.00,weatherlink.com 1.10,2013-04-30 12:58:00,
2013-04-30 09:13:00,56.9,56.0,30.09,North,360,5.0,5.0,98,0.00,,,0.00,weatherlink.com 1.10,2013-04-30 13:13:00,
2013-04-30 09:28:00,57.1,56.0,30.09,North,355,3.0,8.0,97,0.00,,,0.00,weatherlink.com 1.10,2013-04-30 13:28:00,
2013-04-30 09:43:00,57.2,56.0,30.09,NE,55,2.0,8.0,97,0.00,,,0.00,weatherlink.com 1.10,2013-04-30 13:43:00,
2013-04-30 09:58:00,57.2,56.0,30.09,NNE,32,2.0,8.0,97,0.00,,,0.00,weatherlink.com 1.10,2013-04-30 13:58:00,
2013-04-30 10:13:00,57.3,57.0,30.09,NE,36,1.0,6.0,98,0.00,,,0.00,weatherlink.com 1.10,2013-04-30 14:13:00,
2013-04-30 10:28:00,57.3,57.0,30.09,North,360,6.0,8.0,98,0.00,,,0.00,weatherlink.com 1.10,2013-04-30 14:28:00,
2013-04-30 10:43:00,57.4,57.0,30.10,NW,324,0.0,6.0,98,0.00,,,0.00,weatherlink.com 1.10,2013-04-30 14:43:00,
2013-04-30 10:58:00,57.3,57.0,30.10,East,85,3.0,6.0,98,0.00,,,0.00,weatherlink.com 1.10,2013-04-30 14:58:00,
2013-04-30 11:13:00,57.4,57.0,30.11,North,355,0.0,5.0,98,0.00,,,0.00,weatherlink.com 1.10,2013-04-30 15:13:00,
2013-04-30 11:29:00,57.7,57.0,30.10,North,355,0.0,7.0,97,0.00,,,0.00,weatherlink.com 1.10,2013-04-30 15:29:00,
2013-04-30 11:44:00,57.8,57.0,30.10,North,5,5.0,6.0,97,0.00,,,0.00,weatherlink.com 1.10,2013-04-30 15:44:00,
2013-04-30 11:59:00,58.1,57.0,30.09,East,80,5.0,9.0,97,0.00,,,0.00,weatherlink.com 1.10,2013-04-30 15:59:00,
2013-04-30 12:14:00,58.4,58.0,30.09,NE,45,1.0,7.0,97,0.00,,,0.00,weatherlink.com 1.10,2013-04-30 16:14:00,
2013-04-30 12:29:00,59.0,58.0,30.09,ENE,69,3.0,9.0,95,0.00,,,0.00,weatherlink.com 1.10,2013-04-30 16:29:00,
2013-04-30 12:44:00,59.6,58.0,30.09,NE,43,1.0,6.0,94,0.00,,,0.00,weatherlink.com 1.10,2013-04-30 16:44:00,
2013-04-30 12:59:00,60.2,59.0,30.09,NNE,16,1.0,7.0,94,0.00,,,0.00,weatherlink.com 1.10,2013-04-30 16:59:00,
2013-04-30 13:14:00,60.9,58.0,30.09,NNE,23,2.0,5.0,91,0.00,,,0.00,weatherlink.com 1.10,2013-04-30 17:14:00,
2013-04-30 13:29:00,62.7,59.0,30.08,East,84,2.0,9.0,86,0.00,,,0.00,weatherlink.com 1.10,2013-04-30 17:29:00,
2013-04-30 13:44:00,62.9,59.0,30.08,NE,53,0.0,5.0,87,0.00,,,0.00,weatherlink.com 1.10,2013-04-30 17:44:00,
2013-04-30 13:59:00,62.8,59.0,30.09,NE,36,2.0,7.0,86,0.00,,,0.00,weatherlink.com 1.10,2013-04-30 17:59:00,
2013-04-30 14:14:00,62.8,58.0,30.08,East,83,3.0,5.0,85,0.00,,,0.00,weatherlink.com 1.10,2013-04-30 18:14:00,
2013-04-30 14:29:00,62.7,58.0,30.08,NNE,20,1.0,5.0,84,0.00,,,0.00,weatherlink.com 1.10,2013-04-30 18:29:00,
2013-04-30 14:44:00,63.3,59.0,30.09,ENE,57,2.0,6.0,85,0.00,,,0.00,weatherlink.com 1.10,2013-04-30 18:44:00,
2013-04-30 14:59:00,63.5,58.0,30.08,NE,36,3.0,5.0,83,0.00,,,0.00,weatherlink.com 1.10,2013-04-30 18:59:00,
2013-04-30 15:14:00,63.7,59.0,30.08,NW,314,1.0,7.0,85,0.00,,,0.00,weatherlink.com 1.10,2013-04-30 19:14:00,
2013-04-30 15:29:00,64.0,59.0,30.08,North,360,0.0,6.0,84,0.00,,,0.00,weatherlink.com 1.10,2013-04-30 19:29:00,
2013-04-30 15:44:00,64.1,59.0,30.08,ESE,111,0.0,5.0,82,0.00,,,0.00,weatherlink.com 1.10,2013-04-30 19:44:00,
2013-04-30 15:59:00,64.1,58.0,30.08,East,83,5.0,6.0,81,0.00,,,0.00,weatherlink.com 1.10,2013-04-30 19:59:00,
2013-04-30 16:14:00,64.0,58.0,30.08,North,5,4.0,5.0,81,0.00,,,0.00,weatherlink.com 1.10,2013-04-30 20:14:00,
2013-04-30 16:29:00,64.1,59.0,30.08,NE,51,5.0,6.0,82,0.00,,,0.00,weatherlink.com 1.10,2013-04-30 20:29:00,
2013-04-30 16:44:00,64.0,58.0,30.08,NW,318,1.0,7.0,82,0.00,,,0.00,weatherlink.com 1.10,2013-04-30 20:44:00,
2013-04-30 16:59:00,63.8,59.0,30.09,North,5,0.0,6.0,84,0.00,,,0.00,weatherlink.com 1.10,2013-04-30 20:59:00,
2013-04-30 17:14:00,63.4,58.0,30.09,NNW,328,2.0,10.0,82,0.00,,,0.00,weatherlink.com 1.10,2013-04-30 21:14:00,
2013-04-30 17:29:00,63.1,58.0,30.09,NNW,331,4.0,11.0,82,0.00,,,0.00,weatherlink.com 1.10,2013-04-30 21:29:00,
2013-04-30 17:44:00,63.0,58.0,30.10,NNE,15,1.0,8.0,83,0.00,,,0.00,weatherlink.com 1.10,2013-04-30 21:44:00,
2013-04-30 17:59:00,62.9,58.0,30.11,NNW,336,0.0,9.0,83,0.00,,,0.00,weatherlink.com 1.10,2013-04-30 21:59:00,
2013-04-30 18:14:00,62.6,57.0,30.11,NNE,15,3.0,12.0,82,0.00,,,0.00,weatherlink.com 1.10,2013-04-30 22:14:00,
2013-04-30 18:29:00,62.3,57.0,30.11,NNW,346,1.0,8.0,82,0.00,,,0.00,weatherlink.com 1.10,2013-04-30 22:29:00,
2013-04-30 18:44:00,62.1,57.0,30.11,NE,42,9.0,9.0,82,0.00,,,0.00,weatherlink.com 1.10,2013-04-30 22:44:00,
2013-04-30 18:59:00,61.8,57.0,30.12,NNE,28,7.0,7.0,83,0.00,,,0.00,weatherlink.com 1.10,2013-04-30 22:59:00,
2013-04-30 19:14:00,61.6,56.0,30.12,NE,42,0.0,9.0,83,0.00,,,0.00,weatherlink.com 1.10,2013-04-30 23:14:00,
2013-04-30 19:38:00,61.1,56.0,30.12,NE,53,1.0,4.0,82,0.00,,,0.00,weatherlink.com 1.10,2013-04-30 23:38:00,
2013-04-30 19:44:00,61.0,56.0,30.12,NNE,31,0.0,3.0,82,0.00,,,0.00,weatherlink.com 1.10,2013-04-30 23:44:00,
2013-04-30 19:59:00,60.6,55.0,30.13,NE,43,1.0,1.0,83,0.00,,,0.00,weatherlink.com 1.10,2013-04-30 23:59:00,
2013-04-30 20:14:00,60.1,55.0,30.13,NE,43,0.0,1.0,84,0.00,,,0.00,weatherlink.com 1.10,2013-05-01 00:14:00,
2013-04-30 20:29:00,59.2,55.0,30.14,NE,43,0.0,1.0,86,0.00,,,0.00,weatherlink.com 1.10,2013-05-01 00:29:00,
2013-04-30 20:44:00,58.3,55.0,30.14,NE,43,0.0,0.0,88,0.00,,,0.00,weatherlink.com 1.10,2013-05-01 00:44:00,
2013-04-30 20:59:00,57.4,54.0,30.14,NE,43,0.0,0.0,89,0.00,,,0.00,weatherlink.com 1.10,2013-05-01 00:59:00,
2013-04-30 21:14:00,56.8,54.0,30.14,NE,43,0.0,1.0,90,0.00,,,0.00,weatherlink.com 1.10,2013-05-01 01:14:00,
2013-04-30 21:29:00,56.2,53.0,30.15,NE,43,0.0,2.0,90,0.00,,,0.00,weatherlink.com 1.10,2013-05-01 01:29:00,
2013-04-30 21:44:00,55.5,53.0,30.15,NNW,338,0.0,3.0,91,0.00,,,0.00,weatherlink.com 1.10,2013-05-01 01:44:00,
2013-04-30 21:59:00,55.2,53.0,30.15,NNW,338,0.0,3.0,92,0.00,,,0.00,weatherlink.com 1.10,2013-05-01 01:59:00,
2013-04-30 22:14:00,54.9,53.0,30.16,NNW,331,1.0,2.0,93,0.00,,,0.00,weatherlink.com 1.10,2013-05-01 02:14:00,
2013-04-30 22:29:00,54.7,53.0,30.15,NNW,340,2.0,4.0,93,0.00,,,0.00,weatherlink.com 1.10,2013-05-01 02:29:00,
2013-04-30 22:44:00,54.4,53.0,30.15,North,355,0.0,3.0,94,0.00,,,0.00,weatherlink.com 1.10,2013-05-01 02:44:00,
2013-04-30 23:00:00,54.3,53.0,30.15,NNW,342,0.0,5.0,94,0.00,,,0.00,weatherlink.com 1.10,2013-05-01 03:00:00,
2013-04-30 23:15:00,54.2,53.0,30.15,North,360,0.0,6.0,94,0.00,,,0.00,weatherlink.com 1.10,2013-05-01 03:15:00,
2013-04-30 23:30:00,54.2,53.0,30.15,NE,34,1.0,6.0,95,0.00,,,0.00,weatherlink.com 1.10,2013-05-01 03:30:00,
2013-04-30 23:45:00,54.4,53.0,30.15,NNE,18,4.0,7.0,95,0.00,,,0.00,weatherlink.com 1.10,2013-05-01 03:45:00,